Wind_Speed
13 14 15 14 15 15 15 15 15 16 16 16 17 18 15 10 11 11 9 8 8 6 6 6 6 8 5 4 5 8 7 7 4 3 6 3 4 2 2 3 6 5 5 8 11 12 11
13 14 14 15 16 16 17 16 17 16 16 17 18 20 18 13 11 11 9 7 6 6 6 5 4 5 2 3 3 12 11 7 4 4 3 4 2 1 0 2 1 3 10 16 15 22 16
13 13 13 14 14 15 15 16 16 15 15 17 19 19 19 15 12 11 8 6 6 6 6 5 4 3 2 8 4 12 10 4 5 3 2 3 5 2 3 5 3 6 14 17 19 17 9
13 14 14 13 13 14 15 15 16 15 16 18 20 20 20 18 15 13 9 8 6 5 5 5 3 2 5 3 8 12 11 7 3 3 2 2 2 2 2 3 5 6 5 6 6 4 6
12 12 13 14 14 14 15 14 14 16 16 18 17 19 21 22 19 14 11 8 6 4 5 4 2 2 7 1 5 14 14 5 8 7 5 3 3 1 2 1 3 4 7 7 8 5 6
12 12 12 13 14 15 13 15 15 16 18 19 19 20 20 18 18 16 14 10 3 1 3 4 3 2 3 3 4 10 12 6 2 2 1 3 2 2 4 4 5 6 6 7 14 3 4
11 12 13 14 12 14 12 14 15 16 15 18 20 20 21 19 19 14 11 1 3 1 4 7 6 3 2 5 6 5 8 7 2 2 4 4 4 13 15 14 7 5 11 19 27 17 18
14 14 13 13 13 15 13 12 14 14 13 16 19 19 21 21 20 9 5 2 1 3 7 10 12 6 6 5 3 4 11 4 5 7 6 3 12 17 10 12 12 17 20 26 25 15 8
15 14 14 14 14 14 13 11 12 14 14 15 18 20 21 23 13 3 5 2 5 2 3 5 4 4 5 11 5 7 13 5 6 8 10 12 6 2 4 11 15 20 21 24 23 24 16
17 17 16 16 16 15 14 13 13 14 14 16 19 20 24 22 3 8 2 6 5 1 3 3 3 0 3 3 3 7 19 5 4 5 6 11 14 12 7 13 12 16 12 21 21 14 12
17 17 19 19 17 16 16 15 13 14 15 17 19 20 23 13 8 4 8 10 6 1 4 1 2 0 2 4 1 3 10 2 7 7 4 8 6 6 7 9 10 12 7 11 18 19 18
19 18 17 19 19 18 17 16 15 14 15 16 18 19 18 11 7 5 11 8 2 4 6 1 3 3 2 4 2 5 6 3 3 6 11 20 2 5 7 7 10 9 7 15 17 6 6
16 15 18 19 18 16 16 16 20 15 14 15 17 17 13 9 6 11 9 3 4 3 6 6 3 3 4 4 5 7 7 7 5 4 6 4 10 7 6 5 4 3 5 5 4 2 8
16 15 15 15 15 14 15 14 13 16 13 13 17 15 6 5 7 4 1 4 3 6 3 1 3 5 6 5 5 6 3 6 12 8 3 3 7 6 5 4 6 7 4 3 7 6 17
14 14 15 17 14 13 13 13 12 15 8 11 14 7 3 4 5 2 4 3 7 5 3 4 8 3 2 1 1 3 7 5 5 14 6 3 5 4 7 3 1 3 6 5 9 10 7
11 12 13 15 15 15 15 14 11 11 8 9 9 5 3 4 2 3 4 5 4 3 2 1 3 1 2 2 2 1 2 2 1 4 0 2 6 3 7 4 6 3 3 4 3 5 6
13 11 12 14 16 18 15 18 12 8 8 10 3 3 0 1 1 4 2 5 5 4 1 3 3 4 3 3 2 2 5 3 2 3 3 4 4 2 3 4 9 6 2 4 5 4 4
12 13 12 14 15 17 19 18 13 11 5 3 1 3 1 1 3 1 2 4 5 5 1 4 2 3 4 2 3 4 5 3 4 5 1 1 4 4 8 12 7 4 1 3 3 7 7
13 14 15 15 16 17 19 18 13 10 5 1 1 2 2 2 1 2 4 4 4 3 3 3 3 6 2 4 2 4 4 4 3 4 3 2 2 5 7 5 1 2 7 7 10 10 9
12 13 15 15 17 19 20 18 15 10 5 1 1 3 2 3 1 2 4 5 4 4 4 3 4 7 2 3 5 4 4 1 2 3 9 2 4 7 9 7 5 10 16 18 7 6 10
11 12 13 15 17 18 19 21 14 10 5 1 2 2 1 4 4 2 1 1 4 5 2 3 4 6 5 4 3 5 4 5 5 8 1 4 5 6 11 12 10 14 17 19 17 14 11
10 11 12 12 14 16 17 17 20 11 5 2 1 1 0 2 1 3 3 2 5 6 3 4 6 8 4 5 6 10 9 4 8 4 4 2 5 4 6 9 12 16 18 16 17 14 11
10 10 12 10 10 12 15 16 16 19 6 4 2 1 0 3 2 1 4 3 4 12 6 7 8 15 18 13 12 12 8 11 7 5 5 4 2 3 9 2 6 10 5 4 3 3 5
10 11 11 11 13 15 14 12 13 13 14 3 3 2 1 4 2 4 3 5 13 10 11 12 10 9 5 7 9 9 12 16 15 16 12 9 6 5 4 2 1 4 3 6 4 4 6
9 9 10 11 12 12 12 13 12 10 8 6 3 2 1 4 1 7 4 4 7 8 4 8 6 5 5 5 3 5 4 4 2 1 6 11 8 2 2 3 6 3 4 3 3 3 10
8 10 9 10 12 13 12 11 10 10 8 6 7 6 2 3 4 4 4 3 4 4 4 5 4 6 4 2 2 1 2 3 5 4 3 2 8 4 1 3 5 2 6 4 3 2 14
9 10 11 12 12 14 15 14 13 13 13 11 7 9 4 3 4 4 2 4 3 3 3 3 6 6 3 2 1 2 3 2 2 1 3 3 2 4 4 3 6 4 12 7 2 4 10
10 11 11 13 13 15 15 15 13 13 13 12 10 12 10 4 6 7 4 5 4 3 2 3 3 3 3 1 1 3 2 2 0 3 4 2 1 2 1 1 5 15 4 4 6 5 9
11 12 13 14 14 16 16 15 14 14 14 11 10 8 10 7 3 15 19 20 19 18 4 3 4 2 2 2 2 2 3 3 1 3 4 2 3 1 2 2 7 7 11 7 8 6 9
Wind_Direction
21 21 23 23 21 19 20 19 21 24 22 17 14 14 6 349 350 340 322 305 291 291 293 299 320 346 5 3 252 163 153 152 155 91 64 43 43 57 11 360 330 226 282 272 282 296 283
14 17 18 17 16 15 15 12 14 15 15 9 6 5 359 352 343 342 328 305 294 281 277 276 291 334 85 285 143 165 181 173 136 97 61 41 42 47 219 268 231 322 312 302 292 283 283
15 10 14 15 15 15 12 9 6 8 5 2 1 359 359 353 345 339 330 320 305 285 269 267 281 311 245 241 197 177 187 180 169 126 92 23 28 62 356 323 305 297 302 295 270 264 254
14 10 7 13 13 9 5 3 1 359 359 357 355 355 356 356 348 341 337 329 301 278 263 269 290 224 248 249 204 181 183 168 180 193 209 289 354 116 152 307 304 269 260 290 278 158 239
10 5 4 3 2 1 3 360 356 356 356 352 352 353 353 350 346 341 333 319 299 269 249 231 247 159 270 260 210 209 199 167 192 224 236 185 96 173 154 201 290 240 266 258 288 203 200
359 356 357 354 354 355 357 354 355 353 351 352 349 348 347 347 344 337 332 316 277 293 197 203 273 22 252 230 183 180 187 182 158 204 181 133 158 215 220 150 241 239 257 257 271 246 227
347 347 346 350 352 344 345 345 350 345 346 347 351 346 344 342 338 332 335 360 21 351 233 200 188 240 175 141 139 139 152 122 146 215 214 186 227 233 222 210 232 265 268 270 269 272 274
343 340 339 343 344 339 342 345 340 342 342 339 343 346 342 339 333 330 336 24 151 239 297 244 241 245 261 190 136 180 159 158 184 217 220 222 247 245 245 231 235 254 266 269 282 266 231
339 335 328 330 337 334 337 334 331 334 337 337 339 341 343 338 332 352 334 5 332 289 273 288 193 191 203 186 228 204 160 173 205 227 220 230 237 275 222 249 234 252 256 265 265 291 278
331 327 323 324 328 325 328 325 328 329 334 336 338 341 343 338 360 339 62 342 332 336 9 247 192 289 133 124 258 183 180 163 205 237 232 253 260 263 271 254 216 255 248 250 268 295 304
326 324 318 315 313 316 320 318 321 324 327 333 339 340 347 350 320 11 341 331 322 350 348 222 160 98 174 172 360 180 180 156 229 217 177 251 260 247 232 232 166 236 268 272 274 273 288
321 318 319 321 317 313 309 308 311 316 320 326 334 340 343 341 328 325 329 325 328 37 269 80 120 176 174 212 240 139 174 237 240 246 232 251 249 248 232 273 198 261 309 277 268 251 248
325 333 327 320 314 315 315 309 299 312 311 318 328 335 334 338 331 321 333 27 21 119 345 327 269 180 233 210 207 185 185 195 212 232 213 256 243 236 209 274 170 136 296 304 329 239 241
347 347 328 325 325 316 310 317 315 305 294 320 325 333 338 334 328 326 93 64 108 223 230 268 256 261 216 154 241 194 227 244 223 215 273 242 322 175 184 232 275 265 211 248 287 284 293
358 354 349 344 341 343 341 326 313 321 291 312 324 325 299 305 325 285 76 79 209 212 224 298 308 238 221 201 265 209 225 246 236 187 215 238 241 300 281 333 247 293 263 274 267 258 273
357 359 2 357 356 360 358 347 331 317 315 296 320 304 264 328 335 360 64 257 272 257 300 280 258 359 289 273 327 61 255 232 302 170 70 297 281 255 295 285 293 208 333 305 258 297 290
14 9 6 359 3 6 2 2 354 327 312 293 300 344 53 32 32 51 175 242 287 290 260 222 277 297 262 264 221 258 265 314 62 61 35 334 242 269 3 289 332 343 5 330 284 251 292
19 18 14 7 3 5 8 6 7 5 4 261 95 301 35 19 34 60 242 213 295 284 210 295 295 251 226 258 272 246 238 244 147 153 256 181 301 278 234 272 210 138 94 21 331 323 289
23 25 24 14 12 10 9 7 5 13 344 267 256 269 46 92 237 273 280 272 256 273 249 250 265 223 240 272 278 284 317 327 210 188 195 192 263 304 328 349 105 10 324 304 302 259 266
22 26 22 14 17 19 16 10 13 19 347 230 53 320 337 46 28 268 312 276 281 327 261 224 230 268 217 265 212 266 249 336 6 277 314 115 227 227 255 256 284 292 305 292 285 275 290
25 26 25 17 18 14 12 14 26 48 42 360 56 268 76 303 321 287 206 280 289 289 278 262 285 247 201 249 250 238 255 329 299 286 284 189 259 240 260 273 279 275 277 282 287 263 270
13 12 14 11 17 17 17 13 19 11 360 46 76 327 123 279 247 251 232 269 210 292 277 272 250 274 237 248 216 283 284 250 256 277 201 228 259 251 262 262 267 282 281 278 267 285 276
6 8 4 358 8 14 3 23 19 23 31 49 14 8 29 273 209 284 260 236 292 316 256 263 311 307 292 259 255 264 250 264 234 228 225 220 252 311 278 291 297 296 282 292 301 74 316
6 10 5 5 18 16 7 1 2 7 28 16 351 323 276 281 252 275 319 302 305 295 288 291 284 286 311 321 291 263 251 249 245 249 236 245 235 234 264 29 319 228 360 67 85 60 2
5 5 353 355 359 360 356 360 358 354 351 17 40 313 267 278 313 296 312 266 304 305 286 295 303 265 329 304 297 336 314 342 282 293 219 214 227 253 228 194 296 356 11 360 40 39 10
349 344 345 341 341 339 338 351 349 346 345 302 284 232 221 290 244 218 300 269 293 298 301 267 272 309 296 281 360 277 264 241 300 316 7 118 219 197 148 188 226 245 316 312 261 185 8
340 340 342 344 346 345 341 338 327 329 321 337 282 228 209 248 272 144 206 295 217 258 258 312 326 336 356 314 276 228 262 195 284 230 302 347 328 218 221 248 291 314 321 313 98 340 360
335 340 346 347 349 340 337 336 336 328 321 322 292 291 233 256 268 209 233 236 269 224 259 258 360 317 345 340 235 269 245 259 255 239 193 200 212 250 35 198 291 350 340 56 336 330 356
339 339 347 345 335 331 326 330 336 327 322 309 290 288 285 237 269 285 274 265 253 258 264 206 199 203 255 287 308 330 290 317 164 264 310 317 202 260 192 59 65 27 67 33 8 347 347
Height
850 848 847 845 844 842 840 838 834 833 831 830 826 822 820 818 816 815 813 812 811 810 810 809 807 805 804 805 800 799 800 802 802 803 802 803 803 804 808 807 807 806 800 796 795 793 791
852 850 848 846 845 843 841 839 837 833 830 828 825 821 819 816 813 811 810 809 808 808 808 808 807 806 805 807 797 798 799 801 802 802 803 804 804 804 806 807 808 802 802 797 791 787 787
851 850 847 846 844 842 839 838 836 833 830 827 824 821 818 815 811 809 808 806 806 806 806 806 806 805 805 800 795 797 799 800 801 801 803 804 805 805 806 809 805 804 804 797 784 780 785
852 850 849 846 843 842 840 838 835 832 830 828 825 821 817 813 810 808 805 803 803 803 804 805 805 805 803 796 796 796 798 800 801 802 802 803 803 804 805 806 805 803 802 798 777 775 775
852 851 849 847 845 842 840 837 834 832 829 826 822 819 817 814 811 807 804 801 800 800 801 802 803 804 801 795 795 795 796 797 799 801 802 802 803 806 808 811 818 809 803 799 781 765 771
852 850 848 846 843 841 839 837 835 832 830 827 824 820 816 810 808 806 803 801 800 799 799 800 802 806 796 793 791 792 795 798 799 799 801 803 805 808 807 810 822 822 804 788 779 764 767
850 849 847 845 843 840 837 836 834 831 829 827 822 818 815 811 807 802 800 798 802 801 799 794 791 792 789 789 791 792 793 796 798 800 802 803 807 798 795 796 792 792 792 785 763 761 763
851 850 847 844 842 839 837 835 833 829 826 823 819 816 813 810 806 804 802 801 800 801 798 786 788 788 787 787 790 791 794 798 798 800 796 800 795 782 785 791 795 793 789 773 750 747 753
849 847 845 842 840 838 835 832 829 828 825 821 818 815 811 807 803 805 804 804 802 800 802 785 781 783 783 786 786 786 790 794 797 797 796 793 781 774 780 785 786 781 777 764 756 738 742
847 845 843 841 838 836 833 830 828 827 825 822 819 815 812 807 806 805 804 805 803 802 809 783 780 781 781 781 784 780 784 788 793 794 793 789 776 777 777 782 781 783 752 754 749 746 727
845 842 839 837 835 833 831 829 827 826 824 821 819 816 813 807 808 807 808 806 805 805 816 782 783 781 779 783 778 779 781 784 784 782 790 773 768 769 781 772 767 765 743 744 741 738 732
842 840 837 835 833 831 829 827 825 822 822 820 817 815 811 809 807 809 807 805 805 820 814 789 784 783 784 781 778 779 780 781 779 780 776 770 763 762 756 749 755 743 748 737 728 726 719
838 836 835 832 829 827 824 824 821 821 820 817 815 813 810 809 809 806 805 807 823 840 781 790 785 781 783 781 777 776 778 779 778 772 772 758 753 750 748 752 745 751 742 737 754 746 704
837 834 831 828 826 822 820 821 821 819 817 817 814 812 810 808 805 803 802 813 832 796 785 774 771 773 777 772 772 773 772 772 771 770 766 761 767 738 737 735 734 734 731 735 712 698 678
836 834 831 828 823 821 820 819 816 815 814 814 812 810 807 805 804 803 807 835 809 791 782 781 775 776 767 765 770 769 771 767 759 763 760 761 751 733 727 730 729 729 734 716 711 702 693
835 833 830 827 824 820 818 815 815 813 813 811 811 807 806 806 806 807 820 807 799 782 780 780 783 771 782 779 775 779 765 752 758 758 757 755 750 739 732 727 719 723 718 713 710 697 688
834 832 830 827 824 821 817 816 814 813 811 809 809 809 806 805 807 814 833 815 795 782 783 786 783 784 787 787 782 778 767 756 756 761 763 762 756 746 736 732 736 736 728 729 720 712 690
834 833 830 829 825 821 817 815 813 811 809 810 810 812 808 806 819 824 819 804 792 786 785 785 783 783 783 774 785 785 769 755 755 760 764 760 761 755 749 726 731 733 737 740 736 728 723
837 834 831 828 825 822 818 815 813 811 811 810 810 808 808 808 823 833 808 799 792 787 784 785 783 781 775 774 779 772 761 753 754 757 762 758 763 760 753 739 730 734 733 729 733 728 715
837 834 831 830 826 823 820 816 812 810 809 810 813 811 811 812 817 813 810 804 796 786 785 782 786 779 774 782 773 775 764 756 755 756 754 758 757 755 750 743 745 744 737 730 737 738 715
839 835 832 831 828 825 822 817 813 811 810 810 814 813 815 819 818 825 814 814 813 802 789 786 784 783 784 780 776 771 764 766 761 756 759 762 760 755 749 747 746 741 736 731 731 726 726
838 837 834 831 828 825 823 820 817 813 812 812 817 816 818 813 815 813 810 807 818 804 797 793 789 786 784 781 774 770 770 769 765 760 758 761 764 750 747 743 740 736 727 725 722 717 710
837 834 832 831 827 825 824 822 819 815 812 812 815 815 816 814 812 813 808 801 801 798 791 788 786 785 778 772 773 766 768 763 763 763 759 757 760 760 747 743 744 742 724 717 709 720 724
837 835 834 831 827 825 825 823 820 819 818 817 817 818 816 809 809 808 812 805 797 796 794 787 784 782 776 774 769 764 761 756 754 752 753 752 756 751 749 769 789 726 723 724 721 724 723
838 835 832 831 829 826 824 822 821 819 818 817 817 817 816 811 808 811 811 804 800 799 796 789 785 780 777 776 771 780 763 760 754 754 749 747 749 747 753 769 747 723 725 726 730 725 729
836 834 830 828 826 825 824 821 821 820 817 815 816 815 814 813 811 802 806 808 804 800 799 789 781 779 778 779 781 786 779 774 763 752 752 747 749 748 760 758 785 735 730 728 726 719 738
835 833 830 827 825 825 823 821 818 817 816 815 813 813 813 810 804 803 807 800 802 797 794 802 790 785 781 784 789 794 780 771 761 762 763 774 768 751 745 736 760 740 733 728 732 746 750
834 832 828 826 824 821 820 818 815 813 812 812 810 810 809 803 796 796 795 797 795 793 790 792 791 793 796 789 784 773 771 764 765 770 763 759 748 756 764 755 760 754 738 739 768 757 759
833 831 827 824 821 819 817 815 813 811 810 808 806 804 804 802 795 792 789 789 789 785 788 786 788 788 783 779 780 776 774 783 776 764 766 752 754 748 749 748 768 774 774 777 774 770 768